Flag for U.S.A. Weather past 2 weeks in San Antonio, Texas, U.S.A.

Now
81 °F

Overcast.


Feels Like: 86 °F
Forecast: 76 / 91 °F
Wind: 16 mph from Southeast

Location: San Antonio International Airport

Current Time: Jul 6, 2015 at 11:45:45 PM

Latest Report: Jul 6, 2015 at 10:51 PM


Visibility: 10 mi

Pressure: 29.93 "Hg

Humidity: 79%

Dew point: 74 °F

Location of San AntonioLocation

Historic Weather in San Antonio — Graph

°F

San Antonio temperature yesterday

Maximum temperature yesterday: 90 °F (at 2:51 PM)
Minimum temperature yesterday: 76 °F (at 4:51 AM)
Average temperature yesterday: 82 °F

Past Weeks' High & Low Weather Summary

 TemperatureHumidityPressure
High92 °F (Jun 29, 3:51 PM)94% (Jun 22, 3:58 AM)30.17 "Hg (Jun 22, 3:58 AM)
Low70 °F (Jul 2, 6:51 AM)41% (Jun 29, 7:51 PM)29.87 "Hg (Jul 3, 6:51 PM)
Average82 °F73%29.98 "Hg
* Reported Jun 21 10:51 PM — Jul 6 10:00 PM, San Antonio, Weather by CustomWeather, © 2015

Note: Actual official high and low records may vary slightly from our data, if they occured in-between our weather recording intervals... More about our weather records

Advertising

San Antonio weather history for previous 24 hours

 ConditionsComfort  
Time TempWeatherWind HumidityBarometerVisibility
10:00 PM
Mon, Jul 6
82 °FPassing clouds.12 mph74%29.97 "Hg10 mi
8:51 PM83 °FScattered clouds.17 mph70%29.89 "Hg10 mi
7:51 PM85 °FScattered clouds.20 mph63%29.88 "Hg10 mi
6:51 PM88 °FScattered clouds.22 mph57%29.88 "Hg10 mi
5:51 PM90 °FScattered clouds.17 mph52%29.90 "Hg10 mi
4:51 PM90 °FScattered clouds.20 mph52%29.91 "Hg10 mi
3:51 PM91 °FPassing clouds.18 mph49%29.93 "Hg10 mi
2:51 PM90 °FPassing clouds.20 mph50%29.95 "Hg10 mi
1:51 PM89 °FScattered clouds.20 mph53%29.97 "Hg10 mi
12:51 PM87 °FScattered clouds.18 mph55%29.99 "Hg10 mi
11:51 AM86 °FPassing clouds.16 mph57%30.01 "Hg10 mi
10:51 AM85 °FPassing clouds.21 mph61%30.01 "Hg10 mi
9:51 AM82 °FBroken clouds.16 mph72%30.01 "Hg10 mi
8:51 AM79 °FPartly sunny.12 mph79%30.00 "Hg8 mi
7:51 AM78 °FPartly sunny.14 mph82%29.99 "Hg8 mi
6:51 AM77 °FPassing clouds.10 mph85%29.98 "Hg9 mi
5:51 AM78 °FPassing clouds.12 mph82%29.96 "Hg10 mi
4:51 AM78 °FPassing clouds.16 mph82%29.95 "Hg10 mi
3:51 AM79 °FPassing clouds.14 mph79%29.95 "Hg10 mi
2:51 AM80 °FMostly cloudy.13 mph79%29.96 "Hg10 mi
1:51 AM80 °FMostly cloudy.14 mph81%29.96 "Hg10 mi
12:51 AM80 °FOvercast.16 mph81%29.97 "Hg10 mi
11:51 PM
Sun, Jul 5
81 °FOvercast.20 mph79%29.96 "Hg10 mi
Weather by CustomWeather, © 2015

See weather overviewHow to use our weather pages